sat.trackr.live / text

‹ back to catalog

STARLINK-3198

NORAD 49763 · 2021-115AR

PAYLOAD ACTIVE UNKNOWN

§ Identity

Operator
Country
US
Launch date
2021-12-02
Launch site
AFETR
Launch vehicle
Mass (kg)
RCS (m²)

Purposes: comms

External: N2YO · Heavens-Above · Gunter

§ Orbital elements

Epoch: 2026-09-15T15:34:57.012672Z

Period
94.01 min
Inclination
53.1606°
Eccentricity
0.0001114
Mean motion
15.31698663 rev/d
Perigee alt
470.0 km
Apogee alt
471.5 km
Semi-major
6,848.9 km
B*
2.1113e-5
RAAN
356.3548°
Arg perigee
82.5299°
Mean anomaly
277.5829°
Rev number
26,449

§ Raw data

STARLINK-31981 49763U 21115AR  26258.64927098  .00000290  00000+0  21113-4 0  99992 49763  53.1606 356.3548 0001114  82.5299 277.5829 15.31698663264491

JSON: /api/v1/satellites/49763 · /tle

For live sub-satellite position, see the globe view (requires WebGL).

§ Visibility from observer

Set your observer location to see the next 7 days of passes ≥ 10°. The values pass through the URL so the page stays shareable.

No JS? Fill the form by hand. The geolocation button needs JavaScript.